Weather History for Milton, FL

Change the Weather History Date:

Thursday, May 8, 2014

  Actual Average (KNSE) Record (KNSE)
Temperature  
Mean Temperature 72 °F -  
Max Temperature 87 °F 81 °F 90 °F (1998)
Min Temperature 57 °F 61 °F 50 °F (2007)
Cooling Degree Days 6    
Growing Degree Days 22 (Base 50)    
Moisture  
Dew Point 62 °F    
Average Humidity 77    
Maximum Humidity 93    
Minimum Humidity 44    
Precipitation  
Precipitation 0.00 in - - ()
Sea Level Pressure  
Sea Level Pressure 30.09 in    
Wind  
Wind Speed 5 mph (SE)    
Max Wind Speed 17 mph    
Max Gust Speed 24 mph    
Visibility 7 miles    
Events Fog    
Averages and records for this station are not official NWS values.
T = Trace of Precipitation, MM = Missing Value Source: NWS Daily Summary

Daily Weather History Graph

Daily Weather History Graph

Search for Another Location

Airport:

Trip Planner

Search our weather history database for the weather conditions in past years. The results will help you decide how hot, cold, wet, or windy it might be!

Date:

Astronomy

May. 08, 2014 Rise Set
Actual Time 5:58 AM CDT 7:31 PM CDT
Civil Twilight 5:32 AM CDT 7:57 PM CDT
Nautical Twilight 5:01 AM CDT 8:28 PM CDT
Astronomical Twilight 4:28 AM CDT 9:01 PM CDT
Moon 1:55 PM CDT (5/8) 2:03 AM CDT (5/8)
Length of Visible Light 14h 25m
Length of Day
13h 33m
Waxing Gibbous, 65% of the Moon is Illuminated
May 8
Waxing Gibbous
May 14
Full
May 21
Last Quarter
May 28
New
Jun 5
First Quarter

Hourly Weather History & Observations

Time (CDT) Temp. Heat Index Dew Point Humidity Pressure Visibility Wind Dir Wind Speed Gust Speed Precip Events Conditions
12:56 AM 64.9 °F - 59.0 °F 81% 30.05 in 10.0 mi SE 4.6 mph - N/A   Mostly Cloudy
1:56 AM 64.0 °F - 60.1 °F 87% 30.04 in 10.0 mi SE 3.5 mph - N/A   Clear
2:56 AM 62.1 °F - 57.9 °F 86% 30.04 in 6.0 mi Calm Calm - N/A   Clear
3:03 AM 61.0 °F - 57.9 °F 90% 30.08 in 1.8 mi Calm Calm - N/A   Clear
3:11 AM 62.1 °F - 59.0 °F 90% 30.08 in 3.0 mi Calm Calm - N/A   Clear
3:56 AM 62.1 °F - 59.0 °F 90% 30.04 in 6.0 mi Calm Calm - N/A   Clear
4:04 AM 59.0 °F - 55.0 °F 87% 30.08 in 2.5 mi Calm Calm - N/A   Partly Cloudy
4:09 AM 60.1 °F - 55.9 °F 86% 30.08 in 3.0 mi Calm Calm - N/A   Mostly Cloudy
4:36 AM 62.1 °F - 57.9 °F 86% 30.10 in 7.0 mi NE 3.5 mph - N/A   Scattered Clouds
4:56 AM 61.0 °F - 57.0 °F 87% 30.06 in 9.0 mi Calm Calm - N/A   Clear
5:08 AM 57.0 °F - 53.1 °F 87% 30.11 in 7.0 mi Calm Calm - N/A   Scattered Clouds
5:12 AM 57.0 °F - 53.1 °F 87% 30.11 in 2.0 mi NE 3.5 mph - N/A   Mostly Cloudy
5:15 AM 57.9 °F - 54.0 °F 87% 30.11 in 0.8 mi ENE 3.5 mph - N/A   Mist
5:56 AM 62.1 °F - 60.1 °F 93% 30.08 in 0.2 mi East 4.6 mph - N/A Fog Fog
6:56 AM 63.0 °F - 61.0 °F 93% 30.10 in 2.0 mi ENE 4.6 mph - N/A   Overcast
7:05 AM 63.0 °F - 61.0 °F 93% 30.15 in 4.0 mi East 3.5 mph - N/A   Overcast
7:56 AM 66.9 °F - 64.0 °F 90% 30.12 in 0.5 mi East 3.5 mph - N/A Fog Fog
8:19 AM 69.1 °F - 66.0 °F 90% 30.16 in 3.0 mi SE 5.8 mph - N/A   Mostly Cloudy
8:39 AM 73.0 °F - 68.0 °F 84% 30.16 in 7.0 mi SE 5.8 mph - N/A   Scattered Clouds
8:56 AM 75.9 °F - 68.0 °F 76% 30.12 in 10.0 mi SE 8.1 mph - N/A   Scattered Clouds
9:56 AM 82.0 °F 83.8 °F 64.9 °F 56% 30.12 in 10.0 mi SSE 12.7 mph - N/A   Scattered Clouds
10:56 AM 82.9 °F 83.3 °F 61.0 °F 47% 30.12 in 10.0 mi Variable 6.9 mph 17.3 mph N/A   Scattered Clouds
11:56 AM 84.9 °F 85.0 °F 61.0 °F 44% 30.11 in 10.0 mi South 13.8 mph - N/A   Scattered Clouds
12:56 PM 86.0 °F 86.3 °F 62.1 °F 44% 30.09 in 10.0 mi South 11.5 mph 18.4 mph N/A   Scattered Clouds
1:56 PM 86.0 °F 86.8 °F 63.0 °F 46% 30.09 in 10.0 mi South 13.8 mph - N/A   Scattered Clouds
2:56 PM 86.0 °F 86.8 °F 63.0 °F 46% 30.07 in 10.0 mi South 12.7 mph 20.7 mph N/A   Scattered Clouds
3:56 PM 84.9 °F 86.1 °F 64.0 °F 49% 30.06 in 10.0 mi South 17.3 mph 24.2 mph N/A   Scattered Clouds
4:56 PM 82.9 °F 84.4 °F 64.0 °F 53% 30.06 in 10.0 mi South 11.5 mph 20.7 mph N/A   Mostly Cloudy
5:56 PM 81.0 °F 82.7 °F 64.9 °F 58% 30.06 in 10.0 mi SSE 11.5 mph - N/A   Mostly Cloudy
6:56 PM 78.1 °F - 66.9 °F 68% 30.06 in 10.0 mi SSE 15.0 mph - N/A   Mostly Cloudy
7:56 PM 75.9 °F - 69.1 °F 79% 30.06 in 10.0 mi SSE 8.1 mph - N/A   Scattered Clouds
8:56 PM 75.9 °F - 70.0 °F 82% 30.06 in 10.0 mi SE 8.1 mph - N/A   Mostly Cloudy
9:36 PM 75.0 °F - 70.0 °F 84% 30.11 in 10.0 mi SSE 6.9 mph - N/A   Overcast
9:56 PM 75.0 °F - 70.0 °F 84% 30.07 in 10.0 mi SSE 9.2 mph - N/A   Overcast
10:56 PM 75.0 °F - 70.0 °F 84% 30.07 in 10.0 mi SSE 5.8 mph - N/A   Overcast
11:56 PM 75.0 °F - 70.0 °F 84% 30.06 in 10.0 mi SSE 6.9 mph - N/A   Overcast